7 * 24
多渠道服务支持
STARLINK-11387是美国于2024年11月25日发射的星链卫星,隶属于SpaceX公司的星链星座项目。该项目旨在构建全球卫星互联网星座,为全球范围提供高速低延迟的宽带互联网服务,这颗卫星加入后,进一步扩充了星链星座的在轨卫星规模,推进了项目全球覆盖的组网进程。
美国
(US)
| 数据来源 | 国际轨道数据 |
| 星历时间: | 2026-09-11T15:23:47+0800 5小时前 查看轨道信息 |
| 半长轴: | 6733.821km |
| 偏心率: | 0.0002767 |
| 轨道倾角: | 43.000° |
| 近地点辐角 | 253.480° |
| 升交点赤经 | 4.450° |
| 平近点角 | 106.577° |
| 近地点: | 353.82km |
| 远地点: | 357.548km |
| 周期: | 91.654分钟 |
| 每日圈数: | 15.71124 |